• Em Portugal
  • Lista de países
  • Para 7 dias
  • Temperatura da água
  • Mapas de satélite
  • Mapa do tempo
  • Widgets de tempo
  • user-avatar
    Iniciar Sessão

    Previsão horária em Mayrhofen

    Hoje, 27 Maio, Domingo

    Tempo Temperatura Precipitação Vento Pressão Humidade
    00:00 +9°C° 0,1 mm 1 m/s 621 mmHg 89%
    01:00 +9°C° 0,1 mm 1 m/s 621 mmHg 89%
    02:00 +9°C° 0 mm 1 m/s 621 mmHg 88%
    03:00 +9°C° 0 mm 1 m/s 621 mmHg 88%
    04:00 +9°C° 0 mm 1 m/s 620 mmHg 87%
    05:00 +10°C° 0 mm 1 m/s 621 mmHg 83%
    06:00 +12°C° 0 mm 1 m/s 621 mmHg 79%
    07:00 +13°C° 0 mm 1 m/s 622 mmHg 76%
    08:00 +15°C° 0,1 mm 1 m/s 623 mmHg 67%
    09:00 +18°C° 0,1 mm 1 m/s 623 mmHg 58%
    10:00 +19°C° 0,1 mm 1 m/s 624 mmHg 49%
    11:00 +20°C° 0,4 mm 1 m/s 624 mmHg 47%
    12:00 +20°C° 0,4 mm 1 m/s 624 mmHg 45%
    13:00 +21°C° 0,4 mm 1 m/s 624 mmHg 43%
    14:00 +20°C° 0,6 mm 1 m/s 623 mmHg 46%
    15:00 +20°C° 0,6 mm 1 m/s 623 mmHg 48%
    16:00 +20°C° 0,6 mm 1 m/s 623 mmHg 51%
    17:00 +18°C° 1,4 mm 1 m/s 622 mmHg 61%
    18:00 +16°C° 1,4 mm 1 m/s 622 mmHg 71%
    19:00 +13°C° 1,4 mm 0 m/s 621 mmHg 81%
    20:00 +13°C° 0,4 mm 1 m/s 621 mmHg 82%
    21:00 +12°C° 0,4 mm 1 m/s 621 mmHg 83%
    22:00 +11°C° 0,4 mm 1 m/s 621 mmHg 84%
    23:00 +10°C° 0 mm 1 m/s 621 mmHg 85%

    Amanhã, 28 Maio, Segunda-feira

    Tempo Temperatura Precipitação Vento Pressão Humidade
    00:00 +10°C° 0 mm 1 m/s 620 mmHg 85%
    01:00 +9°C° 0 mm 1 m/s 620 mmHg 85%
    02:00 +8°C° 0 mm 2 m/s 620 mmHg 85%
    03:00 +8°C° 0 mm 2 m/s 620 mmHg 85%
    04:00 +7°C° 0 mm 2 m/s 619 mmHg 85%
    05:00 +9°C° 0 mm 2 m/s 620 mmHg 80%
    06:00 +12°C° 0 mm 1 m/s 621 mmHg 75%
    07:00 +13°C° 0 mm 1 m/s 622 mmHg 69%
    08:00 +15°C° 0 mm 1 m/s 622 mmHg 61%
    09:00 +18°C° 0 mm 1 m/s 623 mmHg 53%
    10:00 +19°C° 0 mm 2 m/s 623 mmHg 44%
    11:00 +20°C° 0,2 mm 2 m/s 623 mmHg 43%
    12:00 +21°C° 0,2 mm 2 m/s 623 mmHg 42%
    13:00 +21°C° 0,2 mm 2 m/s 624 mmHg 40%
    14:00 +21°C° 0,2 mm 2 m/s 623 mmHg 43%
    15:00 +20°C° 0,2 mm 2 m/s 623 mmHg 46%
    16:00 +20°C° 0,2 mm 2 m/s 622 mmHg 49%
    17:00 +18°C° 0,4 mm 2 m/s 622 mmHg 58%
    18:00 +17°C° 0,4 mm 2 m/s 621 mmHg 67%
    19:00 +15°C° 0,4 mm 2 m/s 621 mmHg 76%
    20:00 +14°C° 0,1 mm 2 m/s 620 mmHg 81%
    21:00 +12°C° 0,1 mm 2 m/s 620 mmHg 85%
    22:00 +10°C° 0,1 mm 2 m/s 619 mmHg 90%
    23:00 +9°C° 0 mm 2 m/s 619 mmHg 90%

    Depois de amanhã, 29 Maio, Terça-feira

    Tempo Temperatura Precipitação Vento Pressão Humidade
    00:00 +9°C° 0 mm 2 m/s 619 mmHg 90%
    01:00 +9°C° 0 mm 2 m/s 619 mmHg 90%
    02:00 +9°C° 0 mm 2 m/s 619 mmHg 90%
    03:00 +9°C° 0 mm 2 m/s 619 mmHg 90%
    04:00 +8°C° 0 mm 2 m/s 618 mmHg 90%
    05:00 +10°C° 0 mm 2 m/s 619 mmHg 86%
    06:00 +12°C° 0 mm 2 m/s 619 mmHg 81%
    07:00 +13°C° 0 mm 2 m/s 620 mmHg 77%
    08:00 +15°C° 0 mm 2 m/s 620 mmHg 69%
    09:00 +17°C° 0 mm 2 m/s 621 mmHg 62%
    10:00 +18°C° 0 mm 2 m/s 621 mmHg 54%
    11:00 +19°C° 0,9 mm 2 m/s 621 mmHg 56%
    12:00 +19°C° 0,9 mm 2 m/s 621 mmHg 58%
    13:00 +19°C° 0,9 mm 2 m/s 621 mmHg 60%
    14:00 +18°C° 1,6 mm 2 m/s 620 mmHg 63%
    15:00 +18°C° 1,6 mm 2 m/s 620 mmHg 67%
    16:00 +17°C° 1,6 mm 2 m/s 619 mmHg 70%
    17:00 +16°C° 1 mm 1 m/s 619 mmHg 75%
    18:00 +15°C° 1 mm 1 m/s 619 mmHg 80%
    19:00 +14°C° 1 mm 1 m/s 618 mmHg 85%
    20:00 +13°C° 0,9 mm 1 m/s 618 mmHg 88%
    21:00 +12°C° 0,9 mm 1 m/s 618 mmHg 91%
    22:00 +10°C° 0,9 mm 1 m/s 617 mmHg 94%
    23:00 +10°C° 0,5 mm 1 m/s 617 mmHg 94%

    30 Maio, Quarta-feira

    Tempo Temperatura Precipitação Vento Pressão Humidade
    00:00 +9°C° 0,5 mm 1 m/s 617 mmHg 94%
    01:00 +9°C° 0,5 mm 1 m/s 617 mmHg 95%
    02:00 +8°C° 0,1 mm 1 m/s 616 mmHg 94%
    03:00 +8°C° 0,1 mm 1 m/s 616 mmHg 94%
    04:00 +8°C° 0,1 mm 1 m/s 616 mmHg 93%
    05:00 +9°C° 0 mm 1 m/s 616 mmHg 88%
    06:00 +11°C° 0 mm 1 m/s 617 mmHg 82%
    07:00 +13°C° 0 mm 1 m/s 618 mmHg 77%
    08:00 +15°C° 0 mm 1 m/s 618 mmHg 66%
    09:00 +18°C° 0 mm 1 m/s 619 mmHg 56%
    10:00 +20°C° 0 mm 1 m/s 620 mmHg 46%
    11:00 +19°C° 0,4 mm 2 m/s 620 mmHg 46%
    12:00 +19°C° 0,4 mm 2 m/s 620 mmHg 47%
    13:00 +20°C° 0,4 mm 2 m/s 619 mmHg 48%
    14:00 +19°C° 1,1 mm 2 m/s 619 mmHg 52%
    15:00 +19°C° 1,1 mm 2 m/s 619 mmHg 57%
    16:00 +18°C° 1,1 mm 2 m/s 618 mmHg 61%
    17:00 +17°C° 1,6 mm 2 m/s 618 mmHg 68%
    18:00 +16°C° 1,6 mm 1 m/s 618 mmHg 75%
    19:00 +14°C° 1,6 mm 1 m/s 617 mmHg 82%
    20:00 +13°C° 0,8 mm 1 m/s 617 mmHg 85%
    21:00 +12°C° 0,8 mm 1 m/s 617 mmHg 89%
    22:00 +10°C° 0,8 mm 1 m/s 617 mmHg 92%
    23:00 +10°C° 0,3 mm 1 m/s 616 mmHg 93%

    31 Maio, Quinta-feira

    Tempo Temperatura Precipitação Vento Pressão Humidade
    00:00 +10°C° 0,3 mm 1 m/s 616 mmHg 93%
    01:00 +9°C° 0,3 mm 1 m/s 616 mmHg 93%
    02:00 +9°C° 0,3 mm 1 m/s 616 mmHg 93%
    03:00 +8°C° 0,3 mm 1 m/s 616 mmHg 93%
    04:00 +8°C° 0,3 mm 1 m/s 615 mmHg 94%
    05:00 +10°C° 0,1 mm 1 m/s 616 mmHg 89%
    06:00 +11°C° 0,1 mm 1 m/s 617 mmHg 85%
    07:00 +13°C° 0,1 mm 1 m/s 618 mmHg 80%
    08:00 +15°C° 0,2 mm 1 m/s 618 mmHg 74%
    09:00 +16°C° 0,2 mm 1 m/s 619 mmHg 67%
    10:00 +19°C° 0,2 mm 1 m/s 619 mmHg 61%
    11:00 +19°C° 1 mm 1 m/s 619 mmHg 60%
    12:00 +19°C° 1 mm 1 m/s 619 mmHg 59%
    13:00 +20°C° 1 mm 1 m/s 619 mmHg 59%
    14:00 +19°C° 1,5 mm 1 m/s 619 mmHg 61%
    15:00 +19°C° 1,5 mm 1 m/s 619 mmHg 64%
    16:00 +19°C° 1,5 mm 1 m/s 618 mmHg 67%
    17:00 +18°C° 1,1 mm 1 m/s 618 mmHg 73%
    18:00 +16°C° 1,1 mm 1 m/s 618 mmHg 79%
    19:00 +14°C° 1,1 mm 0 m/s 618 mmHg 85%
    20:00 +12°C° 1,3 mm 0 m/s 618 mmHg 87%
    21:00 +11°C° 1,3 mm 0 m/s 617 mmHg 90%
    22:00 +10°C° 1,3 mm 0 m/s 617 mmHg 92%
    23:00 +10°C° 1,1 mm 1 m/s 617 mmHg 93%

    1 Junho, Sexta-feira

    Tempo Temperatura Precipitação Vento Pressão Humidade
    00:00 +10°C° 1,1 mm 1 m/s 617 mmHg 94%
    01:00 +10°C° 1,1 mm 1 m/s 617 mmHg 95%
    02:00 +9°C° 0,8 mm 1 m/s 617 mmHg 96%
    03:00 +9°C° 0,8 mm 1 m/s 617 mmHg 96%
    04:00 +9°C° 0,8 mm 1 m/s 617 mmHg 97%
    05:00 +10°C° 0,2 mm 1 m/s 618 mmHg 94%
    06:00 +11°C° 0,2 mm 1 m/s 619 mmHg 92%
    07:00 +12°C° 0,2 mm 1 m/s 619 mmHg 89%
    08:00 +13°C° 0,4 mm 1 m/s 620 mmHg 86%
    09:00 +14°C° 0,4 mm 1 m/s 620 mmHg 83%
    10:00 +15°C° 0,4 mm 1 m/s 620 mmHg 79%
    11:00 +15°C° 0,8 mm 1 m/s 620 mmHg 77%
    12:00 +16°C° 0,8 mm 1 m/s 621 mmHg 74%
    13:00 +16°C° 0,8 mm 2 m/s 621 mmHg 71%
    14:00 +16°C° 1,6 mm 2 m/s 620 mmHg 72%
    15:00 +16°C° 1,6 mm 2 m/s 620 mmHg 73%
    16:00 +16°C° 1,6 mm 1 m/s 620 mmHg 74%
    17:00 +15°C° 1,2 mm 1 m/s 620 mmHg 79%
    18:00 +14°C° 1,2 mm 1 m/s 620 mmHg 84%
    19:00 +13°C° 1,2 mm 1 m/s 620 mmHg 89%
    20:00 +12°C° 0,9 mm 1 m/s 620 mmHg 90%
    21:00 +12°C° 0,9 mm 1 m/s 620 mmHg 91%
    22:00 +11°C° 0,9 mm 1 m/s 620 mmHg 92%
    23:00 +10°C° 0,8 mm 1 m/s 620 mmHg 92%
    Mostrar mais